Location: Asheville, NC
(35.6000°N, 82.5500°W)
Time: 03:26:46
(UTC-04:00)

CUBEBUG 2 - Pass Details

Date: 17 March 2018
Orbit: 587 x 699 km, 97.6° (Epoch: 17 June)

Event Time Altitude Azimuth Distance (km) Brightness Sun altitude
Rises 20:13:12 0° 180° (S) 2,997 ? -7.7°
Reaches altitude 10° 20:15:30 10° 186° (S) 2,071 ? -8.1°
Maximum altitude 20:19:52 48° 260° (W) 845 ? -9.0°
Drops below altitude 10° 20:24:08 10° 336° (NNW) 2,017 ? -9.9°
Sets 20:26:22 0° 342° (NNW) 2,910 ? -10.3°
